• In Romania
  • List of Countries
  • For 7 days
  • Water Temperature
  • Satellite Maps
  • Weather Map
  • Weather Widgets
  • user-avatar
    Login

    Hourly Weather Batina

    Today, 24 May, Thursday

    Time Temperature Precipitation Wind Pressure Humidity
    00:00 +19°C° 0 mm 1 mps 673 mmHg 54%
    01:00 +19°C° 0 mm 1 mps 673 mmHg 54%
    02:00 +19°C° 0 mm 1 mps 673 mmHg 53%
    03:00 +18°C° 0 mm 1 mps 673 mmHg 53%
    04:00 +19°C° 0 mm 1 mps 673 mmHg 49%
    05:00 +20°C° 0 mm 1 mps 673 mmHg 46%
    06:00 +21°C° 0 mm 2 mps 673 mmHg 40%
    07:00 +23°C° 0 mm 2 mps 674 mmHg 36%
    08:00 +24°C° 0 mm 2 mps 674 mmHg 33%
    09:00 +26°C° 0 mm 3 mps 674 mmHg 29%
    10:00 +27°C° 0 mm 3 mps 674 mmHg 27%
    11:00 +28°C° 0 mm 3 mps 674 mmHg 25%
    12:00 +28°C° 0 mm 3 mps 674 mmHg 24%
    13:00 +29°C° 0 mm 3 mps 674 mmHg 24%
    14:00 +29°C° 0 mm 3 mps 674 mmHg 24%
    15:00 +29°C° 0 mm 3 mps 674 mmHg 23%
    16:00 +28°C° 0 mm 3 mps 673 mmHg 26%
    17:00 +28°C° 0 mm 3 mps 673 mmHg 29%
    18:00 +27°C° 0 mm 3 mps 673 mmHg 32%
    19:00 +26°C° 0 mm 2 mps 673 mmHg 35%
    20:00 +25°C° 0 mm 2 mps 673 mmHg 38%
    21:00 +24°C° 0 mm 1 mps 673 mmHg 41%
    22:00 +24°C° 0 mm 1 mps 673 mmHg 42%
    23:00 +23°C° 0 mm 2 mps 672 mmHg 43%

    Tomorrow, 25 May, Friday

    Time Temperature Precipitation Wind Pressure Humidity
    00:00 +23°C° 0 mm 2 mps 672 mmHg 44%
    01:00 +21°C° 0 mm 2 mps 671 mmHg 45%
    02:00 +20°C° 0 mm 2 mps 671 mmHg 46%
    03:00 +21°C° 0 mm 1 mps 671 mmHg 48%
    04:00 +21°C° 0 mm 2 mps 671 mmHg 46%
    05:00 +21°C° 0 mm 2 mps 671 mmHg 43%
    06:00 +23°C° 0 mm 2 mps 672 mmHg 41%
    07:00 +25°C° 0 mm 3 mps 672 mmHg 36%
    08:00 +26°C° 0 mm 3 mps 673 mmHg 31%
    09:00 +28°C° 0 mm 4 mps 673 mmHg 26%
    10:00 +29°C° 0 mm 5 mps 673 mmHg 24%
    11:00 +30°C° 0 mm 6 mps 673 mmHg 21%
    12:00 +32°C° 0 mm 7 mps 673 mmHg 19%
    13:00 +32°C° 0 mm 6 mps 673 mmHg 18%
    14:00 +32°C° 0 mm 6 mps 672 mmHg 17%
    15:00 +33°C° 0 mm 6 mps 672 mmHg 16%
    16:00 +32°C° 0 mm 6 mps 672 mmHg 18%
    17:00 +30°C° 0 mm 5 mps 672 mmHg 20%
    18:00 +29°C° 0 mm 5 mps 671 mmHg 22%
    19:00 +28°C° 0 mm 4 mps 671 mmHg 25%
    20:00 +26°C° 0 mm 3 mps 671 mmHg 27%
    21:00 +25°C° 0 mm 2 mps 671 mmHg 30%
    22:00 +25°C° 0 mm 2 mps 671 mmHg 31%
    23:00 +24°C° 0 mm 2 mps 671 mmHg 31%

    Day after tomorrow, 26 May, Saturday

    Time Temperature Precipitation Wind Pressure Humidity
    00:00 +24°C° 0 mm 2 mps 671 mmHg 32%
    01:00 +24°C° 0 mm 2 mps 671 mmHg 32%
    02:00 +22°C° 0 mm 3 mps 671 mmHg 33%
    03:00 +22°C° 0 mm 3 mps 671 mmHg 33%
    04:00 +22°C° 0 mm 3 mps 671 mmHg 33%
    05:00 +24°C° 0 mm 3 mps 671 mmHg 33%
    06:00 +25°C° 0 mm 3 mps 672 mmHg 33%
    07:00 +26°C° 0 mm 3 mps 672 mmHg 29%
    08:00 +28°C° 0 mm 4 mps 673 mmHg 24%
    09:00 +30°C° 0 mm 4 mps 673 mmHg 20%
    10:00 +32°C° 0 mm 5 mps 673 mmHg 18%
    11:00 +33°C° 0 mm 5 mps 673 mmHg 17%
    12:00 +34°C° 0 mm 6 mps 673 mmHg 16%
    13:00 +34°C° 0 mm 6 mps 673 mmHg 16%
    14:00 +34°C° 0 mm 6 mps 673 mmHg 16%
    15:00 +34°C° 0 mm 6 mps 673 mmHg 17%
    16:00 +33°C° 0 mm 5 mps 673 mmHg 19%
    17:00 +30°C° 0 mm 4 mps 672 mmHg 22%
    18:00 +29°C° 0 mm 4 mps 672 mmHg 24%
    19:00 +29°C° 0 mm 3 mps 673 mmHg 26%
    20:00 +28°C° 0 mm 3 mps 673 mmHg 28%
    21:00 +27°C° 0 mm 2 mps 673 mmHg 30%
    22:00 +27°C° 0 mm 2 mps 673 mmHg 31%
    23:00 +26°C° 0 mm 3 mps 673 mmHg 32%

    27 May, Sunday

    Time Temperature Precipitation Wind Pressure Humidity
    00:00 +26°C° 0 mm 3 mps 672 mmHg 33%
    01:00 +25°C° 0.1 mm 3 mps 672 mmHg 37%
    02:00 +24°C° 0.1 mm 2 mps 672 mmHg 40%
    03:00 +24°C° 0.1 mm 2 mps 671 mmHg 44%
    04:00 +24°C° 0 mm 2 mps 671 mmHg 43%
    05:00 +24°C° 0 mm 2 mps 672 mmHg 41%
    06:00 +25°C° 0 mm 2 mps 672 mmHg 40%
    07:00 +26°C° 0 mm 3 mps 672 mmHg 36%
    08:00 +28°C° 0 mm 3 mps 673 mmHg 32%
    09:00 +29°C° 0 mm 4 mps 673 mmHg 28%
    10:00 +30°C° 0 mm 4 mps 673 mmHg 26%
    11:00 +32°C° 0 mm 4 mps 673 mmHg 24%
    12:00 +33°C° 0 mm 5 mps 673 mmHg 22%
    13:00 +34°C° 0 mm 5 mps 673 mmHg 21%
    14:00 +34°C° 0 mm 6 mps 673 mmHg 20%
    15:00 +34°C° 0 mm 6 mps 672 mmHg 18%
    16:00 +33°C° 0 mm 6 mps 672 mmHg 20%
    17:00 +32°C° 0 mm 6 mps 671 mmHg 21%
    18:00 +30°C° 0 mm 6 mps 671 mmHg 23%
    19:00 +29°C° 0 mm 5 mps 671 mmHg 27%
    20:00 +28°C° 0 mm 4 mps 671 mmHg 30%
    21:00 +26°C° 0 mm 3 mps 671 mmHg 34%
    22:00 +26°C° 0 mm 3 mps 671 mmHg 37%
    23:00 +25°C° 0 mm 4 mps 670 mmHg 40%

    28 May, Monday

    Time Temperature Precipitation Wind Pressure Humidity
    00:00 +23°C° 0 mm 4 mps 670 mmHg 43%
    01:00 +23°C° 0.1 mm 4 mps 670 mmHg 43%
    02:00 +22°C° 0.1 mm 5 mps 669 mmHg 44%
    03:00 +22°C° 0.1 mm 5 mps 669 mmHg 45%
    04:00 +22°C° 0 mm 6 mps 669 mmHg 43%
    05:00 +23°C° 0 mm 6 mps 669 mmHg 41%
    06:00 +23°C° 0 mm 7 mps 669 mmHg 39%
    07:00 +26°C° 0 mm 8 mps 670 mmHg 34%
    08:00 +28°C° 0 mm 8 mps 670 mmHg 29%
    09:00 +31°C° 0 mm 9 mps 671 mmHg 24%
    10:00 +32°C° 0 mm 9 mps 671 mmHg 23%
    11:00 +32°C° 0 mm 9 mps 671 mmHg 23%
    12:00 +33°C° 0 mm 9 mps 671 mmHg 22%
    13:00 +34°C° 0 mm 9 mps 670 mmHg 20%
    14:00 +34°C° 0 mm 9 mps 670 mmHg 18%
    15:00 +35°C° 0 mm 8 mps 670 mmHg 16%
    16:00 +34°C° 0 mm 8 mps 670 mmHg 19%
    17:00 +33°C° 0 mm 7 mps 669 mmHg 23%
    18:00 +32°C° 0 mm 6 mps 669 mmHg 26%
    19:00 +28°C° 0 mm 5 mps 669 mmHg 35%
    20:00 +26°C° 0 mm 4 mps 669 mmHg 44%
    21:00 +23°C° 0 mm 4 mps 669 mmHg 53%
    22:00 +22°C° 0 mm 4 mps 669 mmHg 59%
    23:00 +21°C° 0 mm 3 mps 669 mmHg 65%

    29 May, Tuesday

    Time Temperature Precipitation Wind Pressure Humidity
    00:00 +20°C° 0 mm 3 mps 669 mmHg 71%
    01:00 +19°C° 0 mm 3 mps 668 mmHg 73%
    02:00 +19°C° 0 mm 3 mps 668 mmHg 75%
    03:00 +18°C° 0 mm 4 mps 668 mmHg 77%
    04:00 +18°C° 0 mm 4 mps 668 mmHg 76%
    05:00 +18°C° 0 mm 4 mps 668 mmHg 75%
    06:00 +18°C° 0 mm 4 mps 668 mmHg 74%
    07:00 +19°C° 0 mm 4 mps 669 mmHg 67%
    08:00 +21°C° 0 mm 4 mps 669 mmHg 59%
    09:00 +22°C° 0 mm 3 mps 670 mmHg 51%
    10:00 +25°C° 0 mm 3 mps 670 mmHg 47%
    11:00 +26°C° 0 mm 3 mps 670 mmHg 42%
    12:00 +28°C° 0 mm 3 mps 670 mmHg 37%
    13:00 +28°C° 0 mm 3 mps 670 mmHg 35%
    14:00 +29°C° 0 mm 4 mps 670 mmHg 33%
    15:00 +30°C° 0 mm 4 mps 670 mmHg 31%
    16:00 +28°C° 0 mm 5 mps 670 mmHg 38%
    17:00 +27°C° 0 mm 5 mps 670 mmHg 45%
    18:00 +26°C° 0 mm 6 mps 669 mmHg 52%
    19:00 +23°C° 0 mm 5 mps 669 mmHg 59%
    20:00 +22°C° 0 mm 5 mps 670 mmHg 65%
    21:00 +21°C° 0 mm 4 mps 670 mmHg 72%
    22:00 +20°C° 0 mm 4 mps 670 mmHg 74%
    23:00 +19°C° 0 mm 4 mps 669 mmHg 75%
    Show more